Погода в Бармине

Россия / Нижегородская область     56°06′42″N   45°30′26″E
темп.,
°C
ветер,
м/с
пор.,
м/с
влажн.,
%
обл.,
%
осадки,
мм/ч
давл.,
гПа
погр.,
м
28 июня, вт
вт2800:00+14ссв410850 0.0 1017219
03:00+10ссв37901 0.0 1018149
06:00+11ссв36815 0.0 1019291
09:00+16с57550 0.0 10191391
12:00+18с57455 0.0 10202098
15:00+18с564311 0.0 10202205
18:00+17ссв485510 0.0 1020454
21:00+11ссв22655 0.0 102110
29 июня, ср
ср2900:00+9с33725 0.0 102234
03:00+7с22785 0.0 102314
06:00+11с34705 0.0 1023177
09:00+16ссз45505 0.0 10221135
12:00+19ссз454292 0.0 10211941
15:00+20ссз45402 0.0 10202113
18:00+19с36571 0.0 1018254
21:00+13зсз3367100 0.0 101821
30 июня, чт
чт3000:00+12зсз3573100 0.0 101860
03:00+11зсз3572100 0.0 101771
06:00+13сз4107471 0.0 1016277
09:00+18ссз69494 0.0 10141288
12:00+21с7104130 0.0 10142405
15:00+21с684637 0.0 10142827
18:00+18ссв59535 0.0 1015437
21:00+12всв226529 0.0 101715
1 июля, пт
пт100:00+10с226936 0.0 101812
03:00+8с227661 0.0 101915
06:00+11с34703 0.0 1020165
09:00+17ссв46500 0.0 10191324
12:00+20с35405 0.0 10191925
15:00+21ссз46405 0.0 10182013
18:00+20с36565 0.0 1018256
21:00+15з33605 0.0 101818
2 июля, сб
сб200:00+13зсз46735 0.0 101781
03:00+12зсз46755 0.0 101792
06:00+15з387832 0.0 1016205
09:00+20з477588 1.0 1014627
12:00+23ссз596682 0.8 10121283
15:00+21с687714 6.4 1013965
18:00+20ссз586827 0.2 1013611
21:00+15с49913 0.4 1014253